Location: D�derode
(51.8092°N, 10.1065°E)
Time: 21:13:31
(UTC+00:00)

Cosmos 2237 Rocket - Pass Details

Date: 01 December 2020
Orbit: 833 x 851 km, 71.0° (Epoch: 24 January)

Event Time Altitude Azimuth Distance (km) Brightness Sun altitude
Rises 15:58:25 0° 212° (SSW) 3,370 6.5 -6.9°
Reaches altitude 10° 16:00:50 10° 213° (SSW) 2,442 5.7 -7.2°
Maximum altitude 16:06:27 80° 301° (WNW) 855 2.3 -8.0°
Drops below altitude 10° 16:12:07 10° 29° (NNE) 2,467 4.1 -8.8°
Enters shadow 16:13:20 - 30° (NNE) 2,926 4.5 -9.0°
